Powrót do katalogu

DELTA 1 DEB

AktywnyLEO
NORAD 10842·DEBRIS·🇺🇸 United States

Wystrzelony Jul 29, 1976 z Vandenberg Space Force Base

Loading…

Następne Przeloty (najbliższe 24 godziny)

TLE

ŚwieżeSource: Space-Track

Epoka: Sep 14, 2026, 09:27 UTC

1 10842U 76077CN  26257.39384417  .00000041  00000-0  45463-3 0  9993
2 10842 102.2185  60.6976 0287575 238.5683 146.9846 12.58990019165890

Śledź DELTA 1 DEB w czasie rzeczywistym z AllMySat

Download on the App Store